P/2005 YQ127 ( LINEAR )

Japanese version
Home page
Updated on April 23, 2006

---------------------------------------------------------------------

* Profile

Discovery Date December 28, 2005
Magnitude 18.0 mag
Discoverer Lincoln Laboratory Near-Earth Asteroid Research project

* Pictures

* Orbital Elements

Epoch 2005 Nov. 6.0 TT = JDT 2453680.5
T 2005 Nov. 3.95314 TT                                  MPC
q   1.9190477            (2000.0)            P               Q
n   0.12961974     Peri.  152.30118     +0.34405117     -0.89433612
a   3.8668319      Node   276.37785     +0.79947568     +0.43875845
e   0.5037158      Incl.   16.72471     +0.49240982     -0.08748674
P   7.60

* Finding Charts

* Magnitudes Graph

        m1 = 10.5 + 5 log d + 20 log r

---------------------------------------------------------------------

The orbital elements are published on M.P.E.C. 2006-D06.
The charts are made with StellaNavigator Ver.2.0 for Windows (AstroArts / ASCII).
The magnitudes graphs are made with Comet for Windows.

---------------------------------------------------------------------

Copyright(C) Seiichi Yoshida (comet@aerith.net). All rights reserved.